Location: Angwan Shehu
(11.2514°N, 7.4613°E)
Time: 08:48:24
(UTC+00:00)

Atlas Centaur 2 - Pass Details

Date: 14 November 2019
Orbit: 459 x 1311 km, 30.4° (Epoch: 08 December)

Event Time Altitude Azimuth Distance (km) Brightness Sun altitude
Rises 19:28:57 0° 220° (SW) 4,122 6.4 -35.2°
Reaches altitude 10° 19:32:21 10° 211° (SSW) 3,050 5.5 -36.0°
Enters shadow 19:36:22 26° 186° (S) 1,969 4.2 -37.0°
